Home > Weather > Pond Inlet > Past weeks

Flag for Canada Weather for the Past 2 Weeks in Pond Inlet, Nunavut, Canada

Now
-33 °F

Passing clouds.


Feels Like: -48 °F
Forecast: N/A
Wind: 5 mph from South

Location: Pond Inlet

Current Time: Feb 9, 2016 at 5:31:51 PM

Latest Report: Feb 9, 2016 at 4:00 PM


Visibility: 25 mi

Pressure: 30.10 "Hg

Humidity: 66%

Dew point: -40 °F

Location of Pond InletLocation

Historic Weather in Pond Inlet — Graph

°F

Pond Inlet Temperature Yesterday

Maximum temperature yesterday: -27 °F (at 2:00 AM)
Minimum temperature yesterday: -33 °F (at 8:00 AM)
Average temperature yesterday: -30 °F

High & Low Weather Summary for the Past Weeks

 TemperatureHumidityPressure
High-15 °F (Feb 6, 6:00 AM)83% (Jan 29, 8:00 PM)30.11 "Hg (Jan 29, 8:00 PM)
Low-35 °F (Feb 9, 2:00 PM)60% (Feb 8, 3:00 AM)29.31 "Hg (Jan 26, 6:00 AM)
Average-26 °F71%29.82 "Hg
* Reported Jan 25 4:00 PM — Feb 9 4:00 PM, Pond Inlet, Weather by CustomWeather, © 2016

Note: Actual official high and low records may vary slightly from our data, if they occured in-between our weather recording intervals... More about our weather records

Advertising

Pond Inlet Weather History for the Previous 24 Hours

 ConditionsComfort  
Time TempWeatherWind HumidityBarometerVisibility
4:00 PM
Tue, Feb 9
-33 °FPassing clouds.5 mph66%30.10 "Hg25 mi
3:00 PM-33 °FLight snow. Passing clouds.6 mph66%30.09 "Hg25 mi
2:54 PM-33 °FLight snow. Passing clouds.6 mph66%30.09 "Hg25 mi
2:00 PM-35 °FPassing clouds.5 mph66%30.09 "Hg25 mi
1:00 PM-33 °FClear.3 mph66%30.08 "Hg9 mi
12:00 PM-33 °FSunny.3 mph66%30.08 "Hg9 mi
11:00 AM-33 °FLight snow. Sunny.6 mph66%30.08 "Hg9 mi
10:00 AM-33 °FSunny.7 mph66%30.08 "Hg9 mi
9:00 AM-31 °FSunny.5 mph67%30.08 "Hg9 mi
8:00 AM-31 °FPassing clouds.3 mph67%30.08 "Hg9 mi
7:00 AM-33 °FClear.5 mph66%30.08 "Hg9 mi
6:00 AM-33 °FClear.6 mph74%30.07 "Hg9 mi
5:00 AM-29 °FClear.3 mph67%30.07 "Hg7 mi
4:00 AM-31 °FClear.3 mph67%30.07 "Hg9 mi
3:00 AM-33 °FClear.5 mph66%30.06 "Hg9 mi
2:00 AM-33 °FClear.7 mph74%30.05 "Hg9 mi
1:00 AM-33 °FClear.5 mph66%30.04 "Hg9 mi
12:00 AM-29 °FLight snow. Clear.6 mph74%30.04 "Hg9 mi
11:00 PM
Mon, Feb 8
-27 °FLight snow. Overcast.5 mph67%30.03 "Hg8 mi
10:48 PM-29 °FLight snow. Passing clouds.6 mph74%30.03 "Hg9 mi
10:00 PM-27 °FPassing clouds.6 mph67%30.03 "Hg9 mi
9:00 PM-29 °FClear.3 mph67%30.02 "Hg9 mi
8:00 PM-31 °FClear.6 mph67%30.01 "Hg9 mi
7:00 PM-33 °FClear.6 mph66%30.01 "Hg9 mi
6:00 PM-31 °FPassing clouds.6 mph67%30.00 "Hg15 mi
5:00 PM-31 °FPassing clouds.7 mph67%29.99 "Hg40 mi
Weather by CustomWeather, © 2016

See weather overviewHow to use our weather pages